Flag for U.S.A. Weather past 2 weeks in Passaic, New Jersey, U.S.A.

Now
21 °F

Clear.


Feels Like: 7 °F
Forecast: 10 / 26 °F
Wind: 16 mph from Northwest

Location: Teterboro Airport

Current Time: Mar 5, 2015 at 11:30:53 PM

Latest Report: Mar 5, 2015 at 9:51 PM


Visibility: 10 mi

Pressure: 30.34 "Hg

Humidity: 47%

Dew point: 4 °F

Location of PassaicLocation

Historic Weather in Passaic — Graph

°F

Passaic temperature yesterday

Maximum temperature yesterday: 48 °F (at 2:51 PM)
Minimum temperature yesterday: 35 °F (at 12:51 AM)
Average temperature yesterday: 40 °F

Past Weeks' High & Low Weather Summary

 TemperatureHumidityPressure
High48 °F (Mar 4, 2:51 PM)93% (Feb 21, 5:54 PM)30.82 "Hg (Feb 21, 5:54 PM)
Low1 °F (Feb 20, 5:51 AM)26% (Feb 28, 2:51 PM)29.72 "Hg (Feb 19, 12:51 AM)
Average24 °F58%30.20 "Hg
* Reported Feb 18 9:51 PM — Mar 5 9:51 PM, Passaic, Weather by CustomWeather, © 2015

Note: Actual official high and low records may vary slightly from our data, if they occured in-between our weather recording intervals... More about our weather records

Advertising

Passaic weather history for previous 24 hours

 ConditionsComfort  
Time TempWeatherWind HumidityBarometerVisibility
9:51 PM
Thu, Mar 5
21 °FClear.16 mph47%30.34 "Hg10 mi
8:51 PM22 °FOvercast.7 mph50%30.30 "Hg10 mi
7:51 PM22 °FMostly cloudy.7 mph55%30.27 "Hg10 mi
6:51 PM22 °FLight snow. Mostly cloudy.5 mph72%30.25 "Hg8 mi
5:51 PM21 °FLight snow. Overcast.9 mph74%30.23 "Hg4 mi
4:58 PM19 °FLight snow. Ice fog.7 mph86%30.21 "Hg2 mi
4:00 PM21 °FSnow. Ice fog.8 mph80%30.20 "Hg1 mi
2:55 PM23 °FLight snow. Mostly cloudy.6 mph74%30.17 "Hg2 mi
1:59 PM23 °FLight snow. Mostly cloudy.5 mph80%30.15 "Hg5 mi
12:58 PM21 °FSnow. Ice fog.6 mph86%30.17 "Hg1 mi
11:54 AM23 °FSnow. Ice fog.13 mph86%30.17 "Hg1 mi
10:51 AM25 °FHeavy snow. Ice fog.12 mph85%30.13 "Hg1 mi
9:53 AM27 °FHeavy snow. Ice fog.5 mph93%30.13 "Hg1 mi
9:01 AM28 °FSnow. Ice fog.7 mph86%30.11 "Hg0 mi
8:03 AM32 °FSnow. Mostly cloudy.9 mph93%30.06 "Hg0 mi
7:58 AM32 °FSnow. More clouds than sun.3 mph93%30.06 "Hg1 mi
6:51 AM32 °FLight snow. Ice fog.5 mph92%30.02 "Hg1 mi
5:51 AM33 °FLight snow. Fog.3 mph88%29.98 "Hg1 mi
4:51 AM34 °FLight snow. Overcast.7 mph82%29.98 "Hg3 mi
3:58 AM34 °FLight snow. Fog.5 mph87%29.95 "Hg3 mi
2:51 AM36 °FRain. Mostly cloudy.10 mph82%29.92 "Hg6 mi
1:51 AM38 °FLight rain. Overcast.No wind90%29.89 "Hg7 mi
12:51 AM39 °FLight rain. Overcast.No wind89%29.89 "Hg7 mi
11:51 PM
Wed, Mar 4
40 °FLight rain. Fog.No wind89%29.90 "Hg5 mi
Weather by CustomWeather, © 2015

See weather overviewHow to use our weather pages